Flag for Australia Weather past 2 weeks in Canberra, Australian Capital Territory, Australia

Now
52 °F

Partly sunny.


Feels Like: 50 °F
Forecast: 41 / 53 °F
Wind: 6 mph from Southwest

Location: Canberra Airport

Current Time: Jul 24, 2014 at 2:34:36 PM

Latest Report: Jul 24, 2014 at 2:00 PM


Visibility: N/A

Pressure: 30.07 "Hg

Humidity: 72%

Dew point: 43 °F

Location of CanberraLocation

Historic Weather in Canberra — Graph

°F

Canberra temperature yesterday

Maximum temperature yesterday: 55 °F (at 1:00 PM)
Minimum temperature yesterday: 30 °F (at 2:00 AM)
Average temperature yesterday: 42 °F

Past Weeks' High & Low Weather Summary

 TemperatureHumidityPressure
High57 °F (Jul 14, 3:00 PM)100% (Jul 13, 10:00 PM)30.51 "Hg (Jul 13, 10:00 PM)
Low23 °F (Jul 20, 7:00 AM)35% (Jul 20, 2:00 PM)29.56 "Hg (Jul 9, 2:00 PM)
Average42 °F79%30.10 "Hg
* Reported Jul 9 2:00 PM — Jul 24 1:00 PM, Canberra, Weather by CustomWeather, © 2014

Note: Actual official high and low records may vary slightly from our data, if they occured in-between our weather recording intervals... More about our weather records

Advertising

Canberra weather history for previous 24 hours

 ConditionsComfort  
Time TempWeatherWind HumidityBarometerVisibility
1:00 PM
Jul 24
48 °FPartly sunny.6 mph82%30.09 "HgN/A
12:30 PM46 °FScattered showers. Broken clouds.8 mph93%30.09 "HgN/A
12:00 PM46 °FSprinkles. Overcast.No wind82%30.15 "Hg5 mi
11:30 AM45 °FSprinkles. More clouds than sun.8 mph87%30.15 "Hg5 mi
10:30 AM43 °FPartly sunny.1 mph93%30.15 "Hg6 mi
10:00 AM41 °FPartly sunny.1 mph100%30.15 "Hg6 mi
9:30 AM39 °FPartly sunny.No wind100%30.15 "Hg6 mi
9:00 AM37 °FPartly sunny.5 mph100%30.15 "Hg6 mi
8:30 AM36 °FPartly sunny.3 mph100%30.15 "Hg6 mi
8:00 AM32 °FPartly sunny.5 mph100%30.15 "Hg6 mi
7:00 AM34 °FIce fog.No wind100%30.12 "Hg0 mi
6:00 AM34 °FFog.6 mph100%30.12 "Hg1 mi
5:00 AM34 °FIce fog.6 mph100%30.12 "Hg1 mi
4:30 AM30 °FPassing clouds.No wind100%30.12 "HgN/A
4:01 AM30 °FPassing clouds.5 mph93%30.12 "Hg1 mi
3:00 AM30 °FLow clouds.3 mph100%30.12 "HgN/A
2:00 AM30 °FPassing clouds.1 mph100%30.12 "Hg0 mi
1:00 AM32 °FClear.No wind93%30.15 "HgN/A
12:30 AM32 °FClear.1 mph100%30.15 "HgN/A
12:03 AM30 °FClear.2 mph100%30.15 "Hg3 mi
11:00 PM
Jul 23
32 °FClear.3 mph100%30.18 "HgN/A
8:30 PM36 °FPassing clouds.No wind100%30.18 "HgN/A
8:00 PM37 °FPassing clouds.2 mph93%30.18 "HgN/A
7:30 PM39 °FPassing clouds.3 mph87%30.18 "HgN/A
7:00 PM39 °FPassing clouds.5 mph93%30.18 "HgN/A
6:30 PM37 °FPassing clouds.3 mph87%30.15 "HgN/A
6:00 PM41 °FPassing clouds.No wind87%30.15 "HgN/A
3:30 PM54 °FPartly sunny.8 mph58%30.15 "HgN/A
3:00 PM54 °FPartly sunny.9 mph63%30.15 "HgN/A
2:00 PM55 °FScattered clouds.6 mph51%30.15 "HgN/A
Weather by CustomWeather, © 2014

See weather overviewHow to use our weather pages